K8WEH Weather Reports


Display with metric or nautical units.
time (UTC)temp
F
wind
direction
speed
MPH
gust
MPH
rain 1hr
in
rain 24hr
in
rain mn
in
humidity
%
barometer
mb
20260508173036 68 232 2.0 6.0 0.00 0.00 0.00 37 1015.5
20260508172526 68 241 2.0 6.0 0.00 0.00 0.00 41 1015.6
20260508172025 68 213 3.0 6.0 0.00 0.00 0.00 41 1015.6
20260508171529 67 92 3.0 10.0 0.00 0.00 0.00 41 1015.7
20260508171023 67 174 3.0 10.0 0.00 0.00 0.00 40 1016.0
20260508170523 67 213 3.0 7.0 0.00 0.00 0.00 43 1016.0
20260508170022 67 231 3.0 6.0 0.00 0.00 0.00 43 1016.0
20260508165521 67 196 2.0 5.0 0.00 0.00 0.00 43 1016.1
20260508165020 67 105 2.0 5.0 0.00 0.00 0.00 42 1016.2
20260508164519 67 145 2.0 6.0 0.00 0.00 0.00 46 1016.1
20260508164018 66 263 1.0 6.0 0.00 0.00 0.00 46 1016.4
20260508163517 66 229 2.0 6.0 0.00 0.00 0.00 44 1016.4
20260508163020 66 134 1.0 6.0 0.00 0.00 0.00 47 1016.5
20260508162515 65 176 2.0 6.0 0.00 0.00 0.00 45 1016.5
20260508162015 65 227 1.0 5.0 0.00 0.00 0.00 44 1016.7
20260508161522 65 159 2.0 5.0 0.00 0.00 0.00 43 1016.9
20260508161011 65 188 1.0 5.0 0.00 0.00 0.00 47 1017.1
20260508160509 64 249 0.0 5.0 0.00 0.00 0.00 48 1017.1
20260508160008 64 102 2.0 5.0 0.00 0.00 0.00 46 1017.3
20260508155507 64 304 2.0 4.0 0.00 0.00 0.00 45 1017.3
20260508155007 63 232 2.0 6.0 0.00 0.00 0.00 44 1017.4
20260508154506 63 109 1.0 6.0 0.00 0.00 0.00 47 1017.4
20260508154004 63 280 2.0 3.0 0.00 0.00 0.00 48 1017.6
20260508153503 62 111 1.0 4.0 0.00 0.00 0.00 47 1017.6
20260508153002 61 223 2.0 7.0 0.00 0.00 0.00 50 1017.6
20260508152600 60 141 1.0 7.0 0.00 0.00 0.00 48 1017.7
20260508152100 60 178 1.0 5.0 0.00 0.00 0.00 49 1017.8
20260508151608 60 232 2.0 7.0 0.00 0.00 0.00 49 1017.8
20260508151058 60 186 1.0 7.0 0.00 0.00 0.00 52 1017.7
20260508150556 59 202 1.0 4.0 0.00 0.00 0.00 52 1017.7
20260508150055 58 89 0.0 7.0 0.00 0.00 0.00 54 1017.8
20260508145554 58 155 2.0 7.0 0.00 0.00 0.00 53 1017.9
20260508145053 57 144 1.0 6.0 0.00 0.00 0.00 54 1017.9
20260508144552 57 140 2.0 6.0 0.00 0.00 0.00 54 1017.8
20260508144051 57 153 1.0 6.0 0.00 0.00 0.00 54 1017.9
20260508143551 57 24 1.0 6.0 0.00 0.00 0.00 54 1017.9
20260508143050 56 204 2.0 5.0 0.00 0.00 0.00 55 1018.0
20260508142546 56 128 2.0 4.0 0.00 0.00 0.00 56 1017.9
20260508142045 55 148 1.0 4.0 0.00 0.00 0.00 56 1017.9
20260508141545 54 131 0.0 4.0 0.00 0.00 0.00 57 1017.9
20260508141043 54 132 2.0 4.0 0.00 0.00 0.00 58 1018.0
20260508140542 54 108 0.0 4.0 0.00 0.00 0.00 58 1017.9
20260508140042 54 217 1.0 4.0 0.00 0.00 0.00 58 1017.9
20260508135542 54 169 1.0 4.0 0.00 0.00 0.00 58 1018.0
20260508135041 53 234 1.0 4.0 0.00 0.00 0.00 56 1018.0
20260508134539 53 128 1.0 5.0 0.00 0.00 0.00 57 1018.1
20260508134038 53 161 2.0 4.0 0.00 0.00 0.00 57 1018.1
20260508133536 52 151 1.0 8.0 0.00 0.00 0.00 59 1018.0
20260508133053 52 132 0.0 5.0 0.00 0.00 0.00 62 1018.0
20260508132534 51 132 0.0 5.0 0.00 0.00 0.00 61 1018.1
20260508132033 51 132 1.0 3.0 0.00 0.00 0.00 61 1018.0
20260508131533 51 203 1.0 6.0 0.00 0.00 0.00 60 1018.1
20260508131032 50 182 2.0 6.0 0.00 0.00 0.00 62 1018.1
20260508130529 50 143 2.0 4.0 0.00 0.00 0.00 63 1018.0
20260508130029 49 155 0.0 2.0 0.00 0.00 0.00 65 1018.2
20260508125528 49 155 0.0 3.0 0.00 0.00 0.00 67 1018.1
20260508125027 49 156 1.0 3.0 0.00 0.00 0.00 67 1018.2
20260508124525 48 146 1.0 3.0 0.00 0.00 0.00 68 1018.2
20260508124024 48 146 0.0 6.0 0.00 0.00 0.00 70 1018.2
20260508123522 47 146 2.0 6.0 0.00 0.00 0.00 70 1018.3
20260508123020 47 136 0.0 2.0 0.00 0.00 0.00 72 1018.3
20260508122520 46 136 0.0 2.0 0.00 0.00 0.00 74 1018.3
20260508122018 45 136 0.0 2.0 0.00 0.00 0.00 75 1018.3
20260508121516 45 136 0.0 2.0 0.00 0.00 0.00 76 1018.2
20260508121014 44 136 0.0 2.0 0.00 0.00 0.00 77 1018.2
20260508120513 43 136 0.0 2.0 0.00 0.00 0.00 78 1018.2
20260508120113 43 136 0.0 2.0 0.00 0.00 0.00 78 1018.1
20260508115510 42 136 0.0 2.0 0.00 0.00 0.00 76 1018.2
20260508115010 42 136 1.0 2.0 0.00 0.00 0.00 71 1018.0
20260508114508 41 136 0.0 2.0 0.00 0.00 0.00 71 1017.9
20260508114006 41 136 0.0 2.0 0.00 0.00 0.00 71 1018.0
20260508113507 40 136 0.0 2.0 0.00 0.00 0.00 70 1018.0
20260508113011 40 136 0.0 2.0 0.00 0.00 0.00 69 1017.9
20260508112505 40 136 0.0 1.0 0.00 0.00 0.00 68 1017.9
20260508112005 40 136 0.0 1.0 0.00 0.00 0.00 69 1018.0
20260508111508 39 203 0.0 1.0 0.00 0.00 0.00 69 1017.9
20260508111005 39 187 0.0 1.0 0.00 0.00 0.00 67 1018.0
20260508110504 39 187 0.0 1.0 0.00 0.00 0.00 67 1018.0
20260508110004 39 187 0.0 2.0 0.00 0.00 0.00 67 1017.9
20260508105503 39 187 0.0 2.0 0.00 0.00 0.00 67 1017.7
20260508105002 38 274 0.0 0.0 0.00 0.00 0.00 66 1017.7
20260508104502 38 274 0.0 0.0 0.00 0.00 0.00 67 1017.7
20260508104002 38 274 0.0 0.0 0.00 0.00 0.00 67 1017.8
20260508103502 38 274 0.0 0.0 0.00 0.00 0.00 67 1017.7
20260508103002 38 274 0.0 0.0 0.00 0.00 0.00 67 1017.8
20260508102502 38 274 0.0 0.0 0.00 0.00 0.00 67 1017.8
20260508102101 38 274 0.0 0.0 0.00 0.00 0.00 67 1017.7
20260508101600 38 274 0.0 0.0 0.00 0.00 0.00 68 1017.8
20260508101100 38 274 0.0 0.0 0.00 0.00 0.00 68 1017.8
20260508100559 38 274 0.0 0.0 0.00 0.00 0.00 68 1017.7
20260508100059 38 274 0.0 0.0 0.00 0.00 0.00 68 1017.7
20260508095559 38 274 0.0 0.0 0.00 0.00 0.00 68 1017.7
20260508095059 38 274 0.0 0.0 0.00 0.00 0.00 68 1017.8
20260508094607 38 274 0.0 0.0 0.00 0.00 0.00 68 1017.7
20260508094057 38 274 0.0 0.0 0.00 0.00 0.00 68 1017.7
20260508093558 38 274 0.0 0.0 0.00 0.00 0.00 69 1017.6
20260508093057 38 274 0.0 0.0 0.00 0.00 0.00 69 1017.7
20260508092555 38 274 0.0 0.0 0.00 0.00 0.00 69 1017.7
20260508092056 38 274 0.0 0.0 0.00 0.00 0.00 69 1017.6
20260508091559 38 274 0.0 0.0 0.00 0.00 0.00 69 1017.6
20260508091054 39 274 0.0 0.0 0.00 0.00 0.00 70 1017.5
20260508090554 39 274 0.0 0.0 0.00 0.00 0.00 70 1017.6
20260508090056 39 274 0.0 0.0 0.00 0.00 0.00 70 1017.6
20260508085553 39 274 0.0 0.0 0.00 0.00 0.00 70 1017.5
20260508085055 39 274 0.0 0.0 0.00 0.00 0.00 70 1017.4
20260508084553 39 274 0.0 0.0 0.00 0.00 0.00 69 1017.4
20260508084054 39 274 0.0 0.0 0.00 0.00 0.00 69 1017.3
20260508083552 39 274 0.0 0.0 0.00 0.00 0.00 70 1017.4
20260508083056 39 274 0.0 0.0 0.00 0.00 0.00 69 1017.3
20260508082552 39 274 0.0 0.0 0.00 0.00 0.00 69 1017.2
20260508082052 39 274 0.0 0.0 0.00 0.00 0.00 69 1017.2
20260508081606 39 274 0.0 0.0 0.00 0.00 0.00 69 1017.2
20260508081054 39 274 0.0 0.0 0.00 0.00 0.00 69 1017.2
20260508080552 39 274 0.0 0.0 0.00 0.00 0.00 69 1017.2
20260508080056 39 274 0.0 0.0 0.00 0.00 0.00 69 1017.3
20260508075551 39 274 0.0 0.0 0.00 0.00 0.00 69 1017.2
20260508075050 39 274 0.0 0.0 0.00 0.00 0.00 69 1017.3
20260508074550 39 274 0.0 0.0 0.00 0.00 0.00 69 1017.3
20260508074051 39 274 0.0 0.0 0.00 0.00 0.00 69 1017.2
20260508073551 39 274 0.0 0.0 0.00 0.00 0.00 70 1017.3
20260508073049 39 274 0.0 0.0 0.00 0.00 0.00 69 1017.3
20260508072548 39 274 0.0 0.0 0.00 0.00 0.00 69 1017.3
20260508072048 39 274 0.0 0.0 0.00 0.00 0.00 69 1017.3
20260508071648 39 274 0.0 0.0 0.00 0.00 0.00 69 1017.2
20260508071048 39 274 0.0 0.0 0.00 0.00 0.00 70 1017.3
20260508070547 39 274 0.0 0.0 0.00 0.00 0.00 70 1017.3
20260508070053 39 274 0.0 0.0 0.00 0.00 0.00 70 1017.3
20260508065547 39 274 0.0 0.0 0.00 0.00 0.00 70 1017.4
20260508065147 39 274 0.0 0.0 0.00 0.00 0.00 70 1017.4
20260508064545 39 274 0.0 0.0 0.00 0.00 0.00 70 1017.6
20260508064045 39 274 0.0 0.0 0.00 0.00 0.00 71 1017.6
20260508063545 39 274 0.0 0.0 0.00 0.00 0.00 71 1017.5
20260508063044 39 274 0.0 0.0 0.00 0.00 0.00 71 1017.5
20260508062544 39 274 0.0 0.0 0.00 0.00 0.00 71 1017.5
20260508062043 39 274 0.0 0.0 0.00 0.00 0.00 71 1017.5
20260508061543 39 274 0.0 0.0 0.00 0.00 0.00 72 1017.6
20260508061045 39 274 0.0 0.0 0.00 0.00 0.00 72 1017.6
20260508060543 39 274 0.0 0.0 0.00 0.00 0.00 72 1017.5
20260508060042 39 274 0.0 0.0 0.00 0.00 0.00 72 1017.5
20260508055544 39 274 0.0 0.0 0.00 0.00 0.00 72 1017.6
20260508055043 39 274 0.0 0.0 0.00 0.00 0.00 73 1017.5
20260508054545 40 274 0.0 0.0 0.00 0.00 0.00 73 1017.5
20260508054041 40 274 0.0 0.0 0.00 0.00 0.00 73 1017.5
20260508053541 40 274 0.0 0.0 0.00 0.00 0.00 73 1017.5
20260508053040 40 274 0.0 0.0 0.00 0.00 0.00 73 1017.5
20260508052541 40 274 0.0 0.0 0.00 0.00 0.00 73 1017.5
20260508052040 40 274 0.0 0.0 0.00 0.00 0.00 73 1017.4
20260508051539 40 274 0.0 0.0 0.00 0.00 0.00 74 1017.4
20260508051039 40 274 0.0 0.0 0.00 0.00 0.00 74 1017.5
20260508050541 40 274 0.0 0.0 0.00 0.00 0.00 74 1017.5
20260508050039 40 274 0.0 0.0 0.00 0.00 0.00 74 1017.6
20260508045538 40 274 0.0 0.0 0.00 0.00 0.00 74 1017.6
20260508045037 40 274 0.0 0.0 0.00 0.00 0.00 75 1017.6
20260508044551 40 274 0.0 0.0 0.00 0.00 0.00 75 1017.6
20260508044037 40 274 0.0 0.0 0.00 0.00 0.00 75 1017.6
20260508043536 40 274 0.0 0.0 0.00 0.00 0.00 75 1017.5
20260508043043 40 274 0.0 0.0 0.00 0.00 0.00 75 1017.6
20260508042535 40 274 0.0 0.0 0.00 0.00 0.00 75 1017.6
20260508042036 41 274 0.0 0.0 0.00 0.00 0.00 76 1017.6
20260508041535 41 274 0.0 0.0 0.00 0.00 0.00 76 1017.5
20260508041034 41 274 0.0 0.0 0.00 0.00 0.00 76 1017.5
20260508040533 41 274 0.0 0.0 0.00 0.00 0.00 76 1017.4
20260508040032 41 274 0.0 0.0 0.00 0.00 0.00 77 1017.3
20260508035531 41 274 0.0 0.0 0.00 0.00 0.00 77 1017.3
20260508035031 41 274 0.0 0.0 0.00 0.00 0.00 77 1017.3
20260508034541 41 274 0.0 0.0 0.00 0.00 0.00 77 1017.3
20260508034031 41 274 0.0 0.0 0.00 0.00 0.00 77 1017.3
20260508033532 41 274 0.0 0.0 0.00 0.00 0.00 77 1017.4
20260508033031 41 274 0.0 0.0 0.00 0.00 0.00 77 1017.4
20260508032532 41 274 0.0 0.0 0.00 0.00 0.00 77 1017.5
20260508032030 42 274 0.0 0.0 0.00 0.00 0.00 77 1017.5
20260508031531 42 274 0.0 0.0 0.00 0.00 0.00 78 1017.5
20260508031030 42 274 0.0 0.0 0.00 0.00 0.00 78 1017.6
20260508030530 42 274 0.0 0.0 0.00 0.00 0.00 78 1017.6
20260508030030 42 274 0.0 0.0 0.00 0.00 0.00 78 1017.5
20260508025529 42 274 0.0 0.0 0.00 0.00 0.00 78 1017.5
20260508025030 42 274 0.0 0.0 0.00 0.00 0.00 78 1017.5
20260508024535 43 274 0.0 0.0 0.00 0.00 0.00 78 1017.5
20260508024030 43 274 0.0 0.0 0.00 0.00 0.00 78 1017.4
20260508023529 43 274 0.0 0.0 0.00 0.00 0.00 77 1017.4
20260508023031 43 274 0.0 0.0 0.00 0.00 0.00 77 1017.4
20260508022528 44 274 0.0 0.0 0.00 0.00 0.00 77 1017.5
20260508022028 44 274 0.0 0.0 0.00 0.00 0.00 77 1017.5
20260508021528 44 274 0.0 0.0 0.00 0.00 0.00 76 1017.5
20260508021028 44 274 0.0 0.0 0.00 0.00 0.00 76 1017.4
20260508020528 45 274 0.0 0.0 0.00 0.00 0.00 76 1017.3
20260508020028 45 274 0.0 0.0 0.00 0.00 0.00 76 1017.2
20260508015528 45 274 0.0 0.0 0.00 0.00 0.00 75 1017.3
20260508015028 45 274 0.0 0.0 0.00 0.00 0.00 75 1017.2
20260508014528 46 274 0.0 0.0 0.00 0.00 0.00 74 1017.2
20260508014028 46 274 0.0 0.0 0.00 0.00 0.00 73 1017.2
20260508013528 46 274 0.0 0.0 0.00 0.00 0.00 72 1017.1
20260508013027 46 274 0.0 0.0 0.00 0.00 0.00 72 1017.1
20260508012527 47 274 0.0 0.0 0.00 0.00 0.00 71 1016.9
20260508012026 47 274 0.0 0.0 0.00 0.00 0.00 71 1016.9
20260508011538 47 274 0.0 0.0 0.00 0.00 0.00 69 1016.7
20260508011025 48 274 0.0 0.0 0.00 0.00 0.00 69 1016.6
20260508010525 48 274 0.0 0.0 0.00 0.00 0.00 68 1016.5
20260508010025 49 274 0.0 0.0 0.00 0.00 0.00 67 1016.4
20260508005525 49 274 0.0 0.0 0.00 0.00 0.00 66 1016.3
20260508005026 50 274 0.0 0.0 0.00 0.00 0.00 66 1016.3
20260508004529 50 274 0.0 0.0 0.00 0.00 0.00 63 1016.2
20260508004026 51 274 0.0 0.0 0.00 0.00 0.00 62 1016.2
20260508003525 51 274 0.0 0.0 0.00 0.00 0.00 63 1016.2
20260508003023 52 274 0.0 0.0 0.00 0.00 0.00 63 1016.2
20260508002524 52 274 0.0 0.0 0.00 0.00 0.00 61 1016.2
20260508002024 53 274 0.0 0.0 0.00 0.00 0.00 57 1016.2
20260508001523 53 274 0.0 0.0 0.00 0.00 0.00 60 1016.1
20260508001023 54 274 0.0 0.0 0.00 0.00 0.00 60 1015.9
20260508000523 55 274 0.0 0.0 0.00 0.00 0.00 57 1015.9
20260508000024 55 274 0.0 0.0 0.00 0.00 0.00 58 1015.8
20260507235523 55 287 0.0 2.0 0.00 0.00 0.00 58 1015.8
20260507235023 56 287 0.0 2.0 0.00 0.00 0.00 56 1015.7
20260507234523 56 287 0.0 3.0 0.00 0.00 0.00 53 1015.7
20260507234022 56 287 1.0 3.0 0.00 0.00 0.00 48 1015.7
20260507233525 56 287 1.0 2.0 0.00 0.00 0.00 47 1015.7
20260507233026 56 286 1.0 3.0 0.00 0.00 0.00 44 1015.7
20260507232521 57 286 1.0 3.0 0.00 0.00 0.00 47 1015.7
20260507232021 57 268 1.0 2.0 0.00 0.00 0.00 44 1015.7
20260507231534 57 268 1.0 3.0 0.00 0.00 0.00 43 1015.6
20260507231021 57 268 1.0 3.0 0.00 0.00 0.00 44 1015.6
20260507230522 57 259 1.0 3.0 0.00 0.00 0.00 44 1015.5
20260507230021 57 257 1.0 3.0 0.00 0.00 0.00 47 1015.5
20260507225521 57 3 1.0 3.0 0.00 0.00 0.00 49 1015.5
20260507225024 57 3 1.0 3.0 0.00 0.00 0.00 48 1015.5
20260507224522 57 3 1.0 3.0 0.00 0.00 0.00 46 1015.4
20260507224020 57 359 0.0 4.0 0.00 0.00 0.00 45 1015.5
20260507223525 57 6 3.0 4.0 0.00 0.00 0.00 44 1015.7
20260507223020 58 303 2.0 4.0 0.00 0.00 0.00 43 1015.7
20260507222519 58 313 1.0 4.0 0.00 0.00 0.00 42 1015.7
20260507222021 58 313 2.0 4.0 0.00 0.00 0.00 43 1015.6
20260507221521 58 173 2.0 4.0 0.00 0.00 0.00 41 1015.6
20260507221020 58 158 1.0 5.0 0.00 0.00 0.00 40 1015.7
20260507220519 58 213 3.0 5.0 0.00 0.00 0.00 41 1015.7
20260507220023 58 271 1.0 3.0 0.00 0.00 0.00 42 1015.5
20260507215520 58 340 1.0 3.0 0.00 0.00 0.00 46 1015.6
20260507215020 58 243 2.0 3.0 0.00 0.00 0.00 42 1015.6
20260507214519 58 213 1.0 5.0 0.00 0.00 0.00 44 1015.5
20260507214019 58 264 1.0 5.0 0.00 0.00 0.00 40 1015.5
20260507213521 58 319 3.0 8.0 0.00 0.00 0.00 39 1015.5
20260507213025 58 313 3.0 9.0 0.00 0.00 0.00 41 1015.4
20260507212517 58 349 1.0 9.0 0.00 0.00 0.00 42 1015.3
20260507212016 58 227 2.0 6.0 0.00 0.00 0.00 40 1015.3
20260507211516 58 74 1.0 6.0 0.00 0.00 0.00 37 1015.3
20260507211014 59 262 2.0 5.0 0.00 0.00 0.00 39 1015.3
20260507210515 59 275 2.0 5.0 0.00 0.00 0.00 39 1015.2
20260507210014 59 238 1.0 4.0 0.00 0.00 0.00 41 1015.1
20260507205514 58 286 1.0 5.0 0.00 0.00 0.00 41 1015.1
20260507205011 58 159 2.0 11.0 0.00 0.00 0.00 41 1015.1
20260507204509 58 340 6.0 11.0 0.00 0.00 0.00 38 1015.2
20260507204009 58 359 1.0 6.0 0.00 0.00 0.00 38 1015.1
20260507203507 59 354 2.0 6.0 0.00 0.00 0.00 41 1015.1
20260507203004 59 320 3.0 5.0 0.00 0.00 0.00 39 1015.0
20260507202502 58 303 1.0 6.0 0.00 0.00 0.00 39 1015.0
20260507202002 58 325 3.0 8.0 0.00 0.00 0.00 38 1015.0
20260507201501 59 336 3.0 8.0 0.00 0.00 0.00 38 1015.0
20260507201001 59 349 2.0 4.0 0.00 0.00 0.00 42 1015.1
20260507200600 59 349 2.0 4.0 0.00 0.00 0.00 42 1015.1
20260507200100 59 304 2.0 5.0 0.00 0.00 0.00 37 1015.2
20260507195601 59 327 2.0 5.0 0.00 0.00 0.00 42 1015.3
20260507195100 59 297 2.0 5.0 0.00 0.00 0.00 37 1015.1
20260507194558 59 248 2.0 7.0 0.00 0.00 0.00 37 1015.2
20260507194057 59 301 4.0 7.0 0.00 0.00 0.00 35 1015.3
20260507193555 59 335 3.0 6.0 0.00 0.00 0.00 38 1015.3
20260507193059 60 349 3.0 10.0 0.00 0.00 0.00 36 1015.3
20260507192554 60 324 3.0 10.0 0.00 0.00 0.00 35 1015.5
20260507192053 59 344 2.0 6.0 0.00 0.00 0.00 38 1015.5
20260507191553 60 43 2.0 7.0 0.00 0.00 0.00 38 1015.3
20260507191050 60 315 2.0 5.0 0.00 0.00 0.00 36 1015.3
20260507190549 60 354 2.0 5.0 0.00 0.00 0.00 39 1015.5
20260507190047 60 239 2.0 8.0 0.00 0.00 0.00 36 1015.3
20260507185546 60 325 3.0 8.0 0.00 0.00 0.00 36 1015.5
20260507185046 61 265 1.0 5.0 0.00 0.00 0.00 37 1015.6
20260507184545 61 230 1.0 5.0 0.00 0.00 0.00 39 1015.4
20260507184042 60 290 1.0 5.0 0.00 0.00 0.00 40 1015.5
20260507183544 60 220 2.0 7.0 0.00 0.00 0.00 43 1015.5
20260507183044 60 247 3.0 7.0 0.00 0.00 0.00 38 1015.5
20260507182540 61 255 3.0 6.0 0.00 0.00 0.00 39 1015.5
20260507182039 61 315 1.0 3.0 0.00 0.00 0.00 43 1015.6
20260507181538 60 295 1.0 4.0 0.00 0.00 0.00 44 1015.8
20260507181039 60 295 1.0 6.0 0.00 0.00 0.00 43 1015.7
20260507180537 60 304 2.0 6.0 0.00 0.00 0.00 41 1015.7
20260507180041 60 205 1.0 4.0 0.00 0.00 0.00 42 1015.7
20260507175535 59 297 2.0 7.0 0.00 0.00 0.00 45 1015.7
20260507175034 59 293 2.0 7.0 0.00 0.00 0.00 39 1015.8
20260507174535 60 188 2.0 6.0 0.00 0.00 0.00 42 1015.9
20260507174031 60 322 2.0 7.0 0.00 0.00 0.00 42 1016.0
20260507173532 60 187 2.0 6.0 0.00 0.00 0.00 43 1015.8